User: anonymous
Location: Vancouver
(49.2500°N, 123.1330°W)
Time: 12:53:23
(UTC-07:00)
Language:

Cosmos 676 Rocket - Orbit

View from above orbital plane
View from above orbital plane
View from above satellite
View from above satellite

Ground track
Ground track

The orbit data is extracted from the following two-line orbital elements,

1 07434U 74071B   14262.10545781  .00000110  00000-0  46310-4 0  3076
2 07434 074.0465 253.9274 0020090 048.9902 015.8895 14.36281031 92827
Epoch (UTC): 19 September 2014 02:31:51
Eccentricity: 0.0020090
inclination: 74.0465°
perigee height: 756 km
apogee height: 785 km
right ascension of ascending node: 253.9274°
argument of perigee: 48.9902°
revolutions per day: 14.36281031
mean anomaly at epoch: 15.8895°
orbit number at epoch: 9282

The dashed part of the orbit path shows where the satellite is in the earth's shadow,  

DLR